Worcester, MA

8:43 PM EST on February 19, 2017 (GMT -0500)
Worcester Regional

Weather History for KORH - April, 2015

Change the Weather History Date:

Friday, April 3, 2015

  Actual Average Record
Temperature  
Mean Temperature 51 °F 41 °F  
Max Temperature 57 °F 50 °F 76 °F (2010)
Min Temperature 44 °F 33 °F 13 °F (1954)
Degree Days  
Heating Degree Days 14 24  
Month to date heating degree days 65 73  
Since 1 July heating degree days 6265 5849  
Cooling Degree Days 0 0  
Month to date cooling degree days 0 0  
Year to date cooling degree days 0 0  
Moisture  
Dew Point 43 °F    
Average Humidity 77    
Maximum Humidity 93    
Minimum Humidity 61    
Precipitation  
Precipitation 0.07 in 0.14 in 1.98 in (1975)
Month to date precipitation 0.10 0.43  
Year to date precipitation 10.83 11.36  
Sea Level Pressure  
Sea Level Pressure 29.76 in    
Wind  
Wind Speed 11 mph (WSW)    
Max Wind Speed 23 mph    
Max Gust Speed 30 mph    
Visibility 8 miles    
Events Rain    
T = Trace of Precipitation, MM = Missing Value Source: NWS Daily Summary

Daily Weather History Graph

Daily Weather History Graph

Search for Another Location

Airport or City:

Trip Planner

Search our weather history database for the weather conditions in past years. The results will help you decide how hot, cold, wet, or windy it might be!

Date:

Astronomy

Apr. 03, 2015 Rise Set
Actual Time 6:27 AM EDT 7:15 PM EDT
Civil Twilight 5:58 AM EDT 7:43 PM EDT
Nautical Twilight 5:25 AM EDT 8:17 PM EDT
Astronomical Twilight 4:50 AM EDT 8:52 PM EDT
Moon 6:40 PM EDT (4/3) 6:00 AM EDT (4/3)
Length of Visible Light 13h 44m
Length of Day
12h 48m
Waxing Gibbous, 99% of the Moon is Illuminated
Apr 3
Waxing Gibbous
Apr 4
Full
Apr 11
Last Quarter
Apr 18
New
Apr 25
First Quarter

Hourly Weather History & Observations

Time (EDT) Temp. Windchill Dew Point Humidity Pressure Visibility Wind Dir Wind Speed Gust Speed Precip Events Conditions
12:54 AM 44.6 °F 38.4 °F 37.4 °F 76% 29.83 in 10.0 mi SSW 12.7 mph - N/A Rain Light Rain
1:54 AM 45.0 °F 37.6 °F 37.0 °F 74% 29.81 in 10.0 mi SW 17.3 mph - 0.00 in Rain Light Rain
2:54 AM 46.0 °F 39.0 °F 37.0 °F 71% 29.79 in 10.0 mi SW 17.3 mph - 0.00 in Rain Light Rain
3:54 AM 48.9 °F - 36.0 °F 61% 29.77 in 10.0 mi WSW 21.9 mph - 0.00 in Rain Light Rain
4:54 AM 48.9 °F - 36.0 °F 61% 29.76 in 10.0 mi WSW 19.6 mph - 0.00 in   Mostly Cloudy
5:54 AM 48.9 °F - 37.0 °F 64% 29.77 in 10.0 mi WSW 17.3 mph - N/A   Clear
6:54 AM 48.9 °F - 37.9 °F 66% 29.78 in 10.0 mi WSW 16.1 mph - N/A   Clear
7:45 AM 50.0 °F - 39.0 °F 66% 29.77 in 10.0 mi WSW 13.8 mph - N/A   Overcast
7:54 AM 48.9 °F - 39.0 °F 69% 29.78 in 10.0 mi WSW 11.5 mph - N/A   Overcast
8:19 AM 51.1 °F - 39.0 °F 63% 29.79 in 10.0 mi WSW 16.1 mph - N/A   Partly Cloudy
8:54 AM 51.1 °F - 39.0 °F 63% 29.80 in 10.0 mi WSW 16.1 mph - N/A   Partly Cloudy
9:54 AM 52.0 °F - 39.9 °F 63% 29.80 in 10.0 mi WSW 12.7 mph - 0.00 in Rain Light Rain
10:54 AM 50.0 °F - 42.1 °F 74% 29.82 in 10.0 mi WSW 12.7 mph - 0.00 in Rain Light Rain
11:54 AM 53.1 °F - 44.1 °F 71% 29.83 in 10.0 mi West 10.4 mph - 0.00 in   Scattered Clouds
12:12 PM 54.0 °F - 44.1 °F 69% 29.81 in 10.0 mi WSW 9.2 mph - N/A   Mostly Cloudy
12:40 PM 55.9 °F - 44.1 °F 64% 29.80 in 10.0 mi West 11.5 mph - N/A   Scattered Clouds
12:54 PM 57.0 °F - 44.1 °F 62% 29.82 in 10.0 mi West 9.2 mph - N/A   Scattered Clouds
1:54 PM 55.9 °F - 45.0 °F 67% 29.81 in 10.0 mi WSW 8.1 mph - N/A   Overcast
2:54 PM 57.0 °F - 45.0 °F 64% 29.80 in 10.0 mi West 9.2 mph - N/A   Overcast
3:54 PM 55.4 °F - 46.4 °F 72% 29.77 in 10.0 mi WSW 5.8 mph - N/A   Overcast
4:54 PM 55.9 °F - 45.0 °F 67% 29.78 in 10.0 mi SW 5.8 mph - N/A   Mostly Cloudy
5:54 PM 55.0 °F - 45.0 °F 69% 29.79 in 10.0 mi SSW 6.9 mph - N/A   Overcast
6:54 PM 53.1 °F - 45.0 °F 74% 29.78 in 10.0 mi SSW 8.1 mph - N/A   Overcast
7:54 PM 50.0 °F - 46.9 °F 89% 29.76 in 10.0 mi SSW 11.5 mph - N/A   Overcast
8:07 PM 50.0 °F - 46.9 °F 89% 29.75 in 8.0 mi SW 9.2 mph - N/A   Overcast
8:23 PM 50.0 °F - 46.9 °F 89% 29.74 in 6.0 mi WSW 6.9 mph - N/A   Overcast
8:54 PM 48.9 °F - 46.9 °F 93% 29.75 in 4.0 mi West 6.9 mph - N/A   Overcast
8:59 PM 48.9 °F - 46.9 °F 93% 29.74 in 1.8 mi West 8.1 mph - N/A   Overcast
9:11 PM 48.9 °F - 48.0 °F 97% 29.73 in 2.5 mi WSW 8.1 mph - N/A   Overcast
9:18 PM 48.0 °F - 46.9 °F 96% 29.73 in 3.0 mi WSW 6.9 mph - N/A   Overcast
9:40 PM 48.9 °F - 46.9 °F 93% 29.72 in 2.0 mi WSW 6.9 mph - N/A   Overcast
9:45 PM 48.9 °F - 46.9 °F 93% 29.71 in 1.8 mi West 6.9 mph - N/A   Overcast
9:54 PM 48.9 °F - 46.9 °F 93% 29.72 in 0.8 mi West 8.1 mph - 0.00 in Rain Light Rain
10:06 PM 48.9 °F - 48.0 °F 97% 29.70 in 2.0 mi West 6.9 mph - 0.00 in Rain Light Rain
10:14 PM 50.0 °F - 48.0 °F 93% 29.69 in 5.0 mi West 6.9 mph - 0.00 in   Overcast
10:54 PM 50.0 °F - 48.0 °F 93% 29.68 in 8.0 mi WNW 6.9 mph - 0.00 in Rain Light Rain
11:27 PM 50.0 °F - 48.0 °F 93% 29.65 in 6.0 mi WNW 8.1 mph - 0.03 in Rain Light Rain
11:54 PM 50.0 °F - 45.0 °F 83% 29.64 in 8.0 mi NNW 3.5 mph - 0.04 in Rain Light Rain